| time (UTC) | temp F | wind direction | speed MPH | gust MPH | rain 1hr in | rain 24hr in | rain mn in | humidity % | barometer mb |
| 20260506061542 | 57 | 136 | 0.0 | 0.0 | 0.00 | 0.00 | 0.00 | 1 | 1007.7 |
| 20260506050150 | 58 | 136 | 0.0 | 0.0 | 0.00 | 0.00 | 0.00 | 14 | 1008.4 |
| 20260506044532 | 58 | 136 | 0.0 | 0.0 | 0.00 | 0.00 | 0.00 | 17 | 1009.0 |
| 20260506043030 | 58 | 136 | 0.0 | 0.0 | 0.00 | 0.00 | 0.00 | 20 | 1008.8 |
| 20260506041514 | 59 | 136 | 0.0 | 0.0 | 0.00 | 0.00 | 0.00 | 19 | 1008.3 |
| 20260506040009 | 59 | 136 | 0.0 | 0.0 | 0.00 | 0.00 | 0.00 | 23 | 1008.6 |
| 20260506034547 | 59 | 136 | 0.0 | 0.0 | 0.00 | 0.00 | 0.00 | 27 | 1008.7 |
| 20260506033043 | 59 | 136 | 0.0 | 0.0 | 0.00 | 0.00 | 0.00 | 25 | 1008.4 |
| 20260506031521 | 59 | 136 | 0.0 | 0.0 | 0.00 | 0.00 | 0.00 | 20 | 1008.8 |
| 20260506030027 | 59 | 136 | 0.0 | 0.0 | 0.00 | 0.00 | 0.00 | 21 | 1008.5 |
| 20260506024600 | 60 | 136 | 0.0 | 0.0 | 0.00 | 0.00 | 0.00 | 28 | 1008.7 |
| 20260506023050 | 60 | 136 | 0.0 | 0.0 | 0.00 | 0.00 | 0.00 | 36 | 1008.7 |
| 20260506021535 | 61 | 136 | 0.0 | 0.0 | 0.00 | 0.00 | 0.00 | 40 | 1008.5 |
| 20260506020030 | 61 | 136 | 0.0 | 0.0 | 0.00 | 0.00 | 0.00 | 41 | 1008.8 |
| 20260506014532 | 62 | 136 | 0.0 | 0.0 | 0.00 | 0.00 | 0.00 | 56 | 1009.1 |
| 20260506013022 | 63 | 136 | 0.0 | 0.0 | 0.00 | 0.00 | 0.00 | 56 | 1009.2 |
| 20260506011518 | 63 | 136 | 0.0 | 0.0 | 0.00 | 0.00 | 0.00 | 62 | 1008.8 |
| 20260506010014 | 63 | 136 | 0.0 | 0.0 | 0.00 | 0.00 | 0.00 | 59 | 1008.6 |
| 20260506004509 | 64 | 136 | 0.0 | 0.0 | 0.00 | 0.00 | 0.00 | 60 | 1008.6 |
| 20260506003013 | 66 | 136 | 0.0 | 0.0 | 0.00 | 0.00 | 0.00 | 63 | 1008.9 |
| 20260506001501 | 67 | 136 | 0.0 | 0.0 | 0.00 | 0.00 | 0.00 | 62 | 1008.8 |
| 20260506000040 | 69 | 215 | 0.0 | 0.0 | 0.00 | 0.00 | 0.00 | 58 | 1008.7 |
| 20260505234537 | 70 | 215 | 0.0 | 0.0 | 0.00 | 0.00 | 0.00 | 56 | 1008.6 |
| 20260505233017 | 71 | 215 | 0.0 | 0.0 | 0.00 | 0.00 | 0.00 | 50 | 1008.8 |
| 20260505231510 | 72 | 250 | 0.0 | 0.0 | 0.00 | 0.00 | 0.00 | 49 | 1008.6 |
| 20260505230057 | 73 | 271 | 0.0 | 0.0 | 0.00 | 0.00 | 0.00 | 47 | 1008.6 |
| 20260505224547 | 74 | 284 | 0.0 | 0.0 | 0.00 | 0.00 | 0.00 | 43 | 1008.7 |
| 20260505223021 | 73 | 282 | 0.0 | 0.0 | 0.00 | 0.00 | 0.00 | 45 | 1008.7 |
| 20260505221518 | 73 | 282 | 0.0 | 0.0 | 0.00 | 0.00 | 0.00 | 46 | 1009.0 |
| 20260505220056 | 74 | 271 | 0.0 | 0.0 | 0.00 | 0.00 | 0.00 | 43 | 1009.2 |
| 20260505214552 | 74 | 284 | 0.0 | 7.0 | 0.00 | 0.00 | 0.00 | 43 | 1009.4 |
| 20260505213031 | 74 | 265 | 0.0 | 8.0 | 0.00 | 0.00 | 0.00 | 42 | 1009.6 |
| 20260505211527 | 74 | 281 | 0.0 | 1.0 | 0.00 | 0.00 | 0.00 | 42 | 1009.5 |
| 20260505210006 | 75 | 314 | 0.0 | 8.0 | 0.00 | 0.00 | 0.00 | 44 | 1009.4 |
| 20260505204501 | 75 | 289 | 0.0 | 1.0 | 0.00 | 0.00 | 0.00 | 45 | 1009.3 |
| 20260505203040 | 75 | 265 | 0.0 | 0.0 | 0.00 | 0.00 | 0.00 | 43 | 1009.3 |
| 20260505201537 | 75 | 224 | 0.0 | 9.0 | 0.00 | 0.00 | 0.00 | 43 | 1009.4 |
| 20260505200019 | 75 | 284 | 0.0 | 5.0 | 0.00 | 0.00 | 0.00 | 45 | 1009.6 |
| 20260505194514 | 75 | 276 | 0.0 | 1.0 | 0.00 | 0.00 | 0.00 | 44 | 1009.6 |
| 20260505193052 | 75 | 245 | 1.0 | 12.0 | 0.00 | 0.00 | 0.00 | 41 | 1009.6 |
| 20260505191608 | 75 | 229 | 0.0 | 7.0 | 0.00 | 0.00 | 0.00 | 43 | 1009.8 |
| 20260505190026 | 75 | 281 | 0.0 | 7.0 | 0.00 | 0.00 | 0.00 | 44 | 1009.8 |
| 20260505184521 | 75 | 291 | 0.0 | 10.0 | 0.00 | 0.00 | 0.00 | 42 | 1009.8 |
| 20260505183101 | 75 | 275 | 1.0 | 17.0 | 0.00 | 0.00 | 0.00 | 42 | 1010.0 |
| 20260505181556 | 76 | 272 | 2.0 | 23.0 | 0.00 | 0.00 | 0.00 | 41 | 1009.7 |
| 20260505180045 | 76 | 160 | 0.0 | 0.0 | 0.00 | 0.00 | 0.00 | 46 | 1009.8 |
| 20260505174535 | 76 | 246 | 0.0 | 21.0 | 0.00 | 0.00 | 0.00 | 44 | 1009.9 |
| 20260505173008 | 76 | 277 | 0.0 | 4.0 | 0.00 | 0.00 | 0.00 | 44 | 1010.2 |
| 20260505171503 | 75 | 293 | 0.0 | 8.0 | 0.00 | 0.00 | 0.00 | 46 | 1010.2 |
| 20260505170041 | 75 | 267 | 0.0 | 8.0 | 0.00 | 0.00 | 0.00 | 47 | 1010.4 |
| 20260505164541 | 75 | 273 | 0.0 | 15.0 | 0.00 | 0.00 | 0.00 | 45 | 1010.7 |
| 20260505163014 | 75 | 272 | 0.0 | 9.0 | 0.00 | 0.00 | 0.00 | 46 | 1010.7 |
| 20260505161511 | 75 | 258 | 0.0 | 7.0 | 0.00 | 0.00 | 0.00 | 48 | 1010.7 |
| 20260505153025 | 72 | 273 | 0.0 | 10.0 | 0.00 | 0.00 | 0.00 | 49 | 1011.3 |
| 20260505151525 | 72 | 263 | 0.0 | 13.0 | 0.00 | 0.00 | 0.00 | 50 | 1011.4 |
| 20260505124516 | 69 | 271 | 0.0 | 3.0 | 0.00 | 0.00 | 0.00 | 54 | 1011.7 |
| 20260505123102 | 68 | 242 | 0.0 | 6.0 | 0.00 | 0.00 | 0.00 | 56 | 1011.7 |
| 20260505121555 | 67 | 214 | 0.0 | 0.0 | 0.00 | 0.00 | 0.00 | 57 | 1012.1 |
| 20260505120053 | 66 | 304 | 0.0 | 0.0 | 0.00 | 0.00 | 0.00 | 59 | 1012.0 |
| 20260505114546 | 65 | 176 | 0.0 | 0.0 | 0.00 | 0.00 | 0.00 | 61 | 1011.9 |
| 20260505113049 | 63 | 145 | 0.0 | 0.0 | 0.00 | 0.00 | 0.00 | 64 | 1012.0 |
| 20260505111538 | 61 | 243 | 0.0 | 0.0 | 0.00 | 0.00 | 0.00 | 65 | 1011.9 |
| 20260505101507 | 0 | 0.0 | 0.0 | 0.00 | 0.00 | 0.00 | 1011.4 | ||
| 20260505100058 | 0 | 0.0 | 0.0 | 0.00 | 0.00 | 0.00 | 1011.1 | ||
| 20260505094536 | 0 | 0.0 | 0.0 | 0.00 | 0.00 | 0.00 | 1011.0 | ||
| 20260505093024 | 51 | 232 | 0.0 | 0.0 | 0.00 | 0.00 | 0.00 | 9 | 1010.9 |
| 20260505091519 | 50 | 234 | 0.0 | 0.0 | 0.00 | 0.00 | 0.00 | 7 | 1010.8 |
| 20260505090012 | 50 | 234 | 0.0 | 0.0 | 0.00 | 0.00 | 0.00 | 5 | 1010.7 |
| 20260505084508 | 50 | 233 | 0.0 | 0.0 | 0.00 | 0.00 | 0.00 | 1 | 1010.7 |
| 20260505083005 | 50 | 159 | 0.0 | 0.0 | 0.00 | 0.00 | 0.00 | 1 | 1010.7 |
| 20260505081624 | 50 | 158 | 0.0 | 0.0 | 0.00 | 0.00 | 0.00 | 1 | 1010.5 |
| 20260505074551 | 51 | 158 | 0.0 | 0.0 | 0.00 | 0.00 | 0.00 | 1 | 1010.1 |
| 20260505073048 | 51 | 159 | 0.0 | 0.0 | 0.00 | 0.00 | 0.00 | 1 | 1010.1 |
| 20260505071525 | 52 | 159 | 0.0 | 0.0 | 0.00 | 0.00 | 0.00 | 2 | 1010.0 |